Starlink 31368

operational
NORAD ID: 58970 Int'l Des: 2024-031 Owner: SPXS Country: US Constellation: starlink
LEOCIRCULAR

About Starlink 31368

Description loading...

Live Position

Loading 3D Globe...

Upcoming Passes

Altitude History

Altitude vs Time

uPlot chart will show altitude changes over time

Two-Line Element Set

1 58970U 24031F 26034.44325504 .00000976 00000-0 45089-4 0 9993
2 58970 53.1585 95.5099 0001354 88.4555 271.6601 15.30188009111295
Epoch: Feb 3, 2026 • Age: 22 hours

Current Status

Altitude 494.1 km
Velocity 7.62 km/s
Sub-Earth Point -51.74°S, 122.3°E
Launch Date Feb 15, 2024
Age 1.9 years
Type internet

Technical Details

Classification Payload
Mass 730.00 kg
Dry Mass 700.00 kg
Total Mass 730.00 kg
Length 0.30 m
Diameter 4.10 m
Span 29.00 m
Shape Box + pan
Manufacturer SPXS
Bus Type Starlink V2M
Phase Status In Orbit
Owner/State SPXS/US

Large Constellations

Loading constellations...